White Mountain Summit Weather observations

Data are for 10 minute period ending at time listed.
 Day   Time   Solar   Ave.   Ave.  Ave.  Vector    Max.    Baro.  
  of    of     Rad.   Air    Rel.  Wind   Wind     Wind   Press.  
Year   Day            Temp.  Hum.  Speed  Dir.     Gust           
2016   (PST)   W/m2    F      %     mph   deg.      mph     mb.   
-------------------------------------------------------------------
 343   21:40    0.0    13   88.7     0      0.0     0.0   597.2 
 343   21:50    0.0    13   88.7     0      0.0     0.0   598.0 
 343   22:00    0.0    13   88.7     0      0.0     0.0   598.4 
 343   22:10    0.0    13   88.7     0      0.0     0.0   598.4 
 343   22:20    0.0    13   88.7     0      0.0     0.0   598.0 
 343   22:30    0.0    13   88.7     0      0.0     0.0   598.0 
 343   22:40    0.0    13   88.7     0      0.0     0.0   597.7 
 343   22:50    0.0    13   88.7     0      0.0     0.0   598.0 
 343   23:00    0.0    13   88.9     0      0.0     0.0   598.1 
 343   23:10    0.0    14   89.0     0      0.0     0.0   597.9 
 343   23:20    0.0    14   89.0     0      0.0     0.0   598.0 
 343   23:30    0.0    14   89.0     0      0.0     0.0   598.6 
 343   23:40    0.0    14   88.9     0      0.0     0.0   598.6 
 343   23:50    0.0    14   88.9     0      0.0     0.0   598.6 
 344    0:00    0.0    14   88.9     0      0.0     0.0   598.3 
 344    0:10    0.0    14   88.9     0      0.0     0.0   598.3 
 344    0:20    0.0    14   88.9     0      0.0     0.0   598.3 
 344    0:30    0.0    14   88.8     0      0.0     0.0   598.6 
 344    0:40    0.0    14   88.9     0      0.0     0.0   599.0 
 344    0:50    0.0    14   88.8     0      0.0     0.0   598.6 
 344    1:00    0.0    14   88.8     0      0.0     0.0   598.6 
 344    1:10    0.0    14   88.8     0      0.0     0.0   598.4 
 344    1:20    0.0    14   88.7     0      0.0     0.0   598.6 
 344    1:30    0.0    14   88.6     0      0.0     0.0   598.7 
 344    1:40    0.0    14   88.6     0      0.0     0.0   598.8 
 344    1:50    0.0    14   88.5     0      0.0     0.0   598.7 
 344    2:00    0.0    13   88.4     0      0.0     0.0   598.3 
 344    2:10    0.0    13   88.4     0      0.0     0.0   598.1 
 344    2:20    0.0    13   88.3     0      0.0     0.0   598.2 
 344    2:30    0.0    13   88.4     0      0.0     0.0   598.3 
 344    2:40    0.0    13   88.2     0      0.0     0.0   598.3 
 344    2:50    0.0    13   88.0     0      0.0     0.0   598.3 
 344    3:00    0.0    13   87.7     0      0.0     0.0   598.5 
 344    3:10    0.0    13   87.7     0      0.0     0.0   598.5 
 344    3:20    0.0    13   87.4     0      0.0     0.0   598.1 
 344    3:30    0.0    13   87.3     0      0.0     0.0   598.3 
 344    3:40    0.0    13   87.3     0      0.0     0.0   598.5 
 344    3:50    0.0    13   87.2     0      0.0     0.0   598.5 
 344    4:00    0.0    13   87.0     0      0.0     0.0   598.6 
 344    4:10    0.0    13   86.8     0      0.0     0.0   598.9 
 344    4:20    0.0    13   86.8     0      0.0     0.0   599.1 
 344    4:30    0.0    13   86.4     0      0.0     0.0   598.9 
 344    4:40    0.0    13   86.0     0      0.0     0.0   598.5 
 344    4:50    0.0    13   85.8     0      0.0     0.0   598.6 
 344    5:00    0.0    13   85.6     0      0.0     0.0   598.9 
 344    5:10    0.0    13   85.1     0      0.0     0.0   598.7 
 344    5:20    0.0    13   84.9     0      0.0     0.0   599.0 
 344    5:30    0.0    13   84.4     0      0.0     0.0   599.1 
 344    5:40    0.0    13   83.9     0      0.0     0.0   599.0 
 344    5:50    0.0    13   83.7     0      0.0     0.0   599.3 
 344    6:00    0.0    13   82.7     0      0.0     0.0   598.7 
 344    6:10    0.0    13   82.0     0      0.0     0.0   598.8 
 344    6:20    0.0    13   81.0     0      0.0     0.0   598.6 
 344    6:30    0.0    14   80.2     0      0.0     0.0   598.6 
 344    6:40    0.0    14   79.6     0      0.0     0.0   598.5 
 344    6:50    0.0    14   78.5     0      0.0     0.0   598.5 
 344    7:00    0.0    14   77.9     0      0.0     0.0   598.9 
 344    7:10    0.0    14   75.7     0      0.0     0.0   599.3 
 344    7:20    0.0    15   72.8     0      0.0     0.0   599.2 
 344    7:30    0.0    15   72.4     0      0.0     0.0   599.7 
 344    7:40    0.0    15   72.5     0      0.0     0.0   599.8 
 344    7:50    0.0    15   71.9     0      0.0     0.0   599.8 
 344    8:00    0.0    15   71.4     0      0.0     0.0   599.9 
 344    8:10    0.0    15   70.6     0      0.0     0.0   600.0 
 344    8:20    0.0    15   70.0     0      0.0     0.0   599.8 
 344    8:30    0.0    16   69.9     0      0.0     0.0   599.9 
 344    8:40    0.0    16   70.0     0      0.0     0.0   599.9 
 344    8:50    0.0    16   68.2     0      0.0     0.0   599.9 
 344    9:00    0.0    16   65.8     0      0.0     0.0   599.8 
 344    9:10    0.0    16   66.1     0      0.0     0.0   599.9 
 344    9:20    0.0    16   65.5     0      0.0     0.0   600.2 
 344    9:30    0.0    17   65.8     0      0.0     0.0   600.5 
 344    9:40    0.0    17   65.7     0      0.0     0.0   600.9 
 344    9:50    0.0    17   65.6     0      0.0     0.0   601.2 
 344   10:00    0.0    18   64.8     0      0.0     0.0   601.1 
 344   10:10    0.0    19   60.9     0      0.0     0.0   601.1 
 344   10:20    0.0    19   60.5     0      0.0     0.0   601.3 
 344   10:30    0.0    20   59.3     0      0.0     0.0   601.3 
 344   10:40    0.0    20   59.2     0      0.0     0.0   601.1 
 344   10:50    0.0    20   57.4     0      0.0     0.0   601.1 
 344   11:00    0.0    20   57.4     0      0.0     0.0   601.0 
 344   11:10    0.0    20   56.8     0      0.0     0.0   600.8 
 344   11:20    0.0    20   56.3     0      0.0     0.0   600.7 
 344   11:30    0.0    21   57.8     0      0.0     0.0   600.7 
 344   11:40    0.0    21   61.2     0      0.0     0.0   600.5 
 344   11:50    0.0    22   63.4     0      0.0     0.0   600.5 
 344   12:00    0.0    22   64.6     0      0.0     0.0   600.3 
 344   12:10    0.0    22   64.3     0      0.0     0.0   600.5 
 344   12:20    0.0    22   62.6     0      0.0     0.0   600.3 
 344   12:30    0.0    22   63.8     0      0.0     0.0   600.3 
 344   12:40    0.0    22   63.4     0      0.0     0.0   600.1 
 344   12:50    0.0    22   64.1     0      0.0     0.0   599.7 
 344   13:00    0.0    22   64.8     0      0.0     0.0   599.7 
 344   13:10    0.0    21   66.0     0      0.0     0.0   599.4 
 344   13:20    0.0    22   66.6     0      0.0     0.0   599.5 
 344   13:30    0.0    22   65.8     0      0.0     0.0   599.5 
 344   13:40    0.0    21   66.2     0      0.0     0.0   599.7 
 344   13:50    0.0    20   67.6     0      0.0     0.0   599.9 
 344   14:00    0.0    20   68.8     0      0.0     0.0   599.7 
 344   14:10    0.0    19   69.0     0      0.0     0.0   599.4 
 344   14:20    0.0    19   69.4     0      0.0     0.0   599.3 
 344   14:30    0.0    19   68.0     0      0.0     0.0   599.2 
 344   14:40    0.0    19   68.9     0      0.0     0.0   599.4 
 344   14:50    0.0    19   67.1     0      0.0     0.0   599.4 
 344   15:00    0.0    19   66.7     0      0.0     0.0   599.5 
 344   15:10    0.0    19   65.2     0      0.0     0.0   599.6 
 344   15:20    0.0    19   63.2     0      0.0     0.0   599.9 
 344   15:30    0.0    18   63.8     0      0.0     0.0   599.9 
 344   15:40    0.0    20   62.5     0      0.0     0.0   599.9 
 344   15:50    0.0    21   59.3     0      0.0     0.0   599.8 
 344   16:00    0.0    20   58.7     0      0.0     0.0   599.9 
 344   16:10    0.0    19   60.0     0      0.0     0.0   599.5 
 344   16:20    0.0    19   60.2     0      0.0     0.0   599.3 
 344   16:30    0.0    19   60.1     0      0.0     0.0   599.2 
 344   16:40    0.0    18   60.7     0      0.0     0.0   599.0 
 344   16:50    0.0    18   62.4     0      0.0     0.0   599.0 
 344   17:00    0.0    18   63.1     0      0.0     0.0   598.7 
 344   17:10    0.0    18   63.8     0      0.0     0.0   599.2 
 344   17:20    0.0    17   63.9     0      0.0     0.0   599.2 
 344   17:30    0.0    17   64.6     0      0.0     0.0   599.2 
 344   17:40    0.0    17   63.6     0      0.0     0.0   599.1 
 344   17:50    0.0    17   63.2     0      0.0     0.0   599.0 
 344   18:00    0.0    17   62.6     0      0.0     0.0   598.5 
 344   18:10    0.0    17   60.9     0      0.0     0.0   598.5 
 344   18:20    0.0    17   60.2     0      0.0     0.0   598.7 
 344   18:30    0.0    16   58.5     0      0.0     0.0   598.7 
 344   18:40    0.0    17   57.5     0      0.0     0.0   598.7 
 344   18:50    0.0    17   56.3     0      0.0     0.0   598.6 
 344   19:00    0.0    17   54.7     0      0.0     0.0   598.3 
 344   19:10    0.0    17   54.0     0      0.0     0.0   598.4 
 344   19:20    0.0    17   56.0     0      0.0     0.0   598.2 
 344   19:30    1.0    18   57.2     0      0.0     0.0   598.4 
 344   19:40    0.0    18   58.9     0      0.0     0.0   598.6 
 344   19:50    0.0    17   58.5     0      0.0     0.0   598.7 
 344   20:00    0.0    16   58.3     0      0.0     0.0   598.7 
 344   20:10    0.0    17   60.8     0      0.0     0.0   598.4 
 344   20:20    0.0    18   60.5     0      0.0     0.0   598.6 
 344   20:30    0.0    17   62.7     0      0.0     0.0   598.6 
 344   20:40    0.0    16   64.9     0      0.0     0.0   598.7 
 344   20:50    0.0    17   63.2     0      0.0     0.0   598.5 
 344   21:00    0.0    17   62.9     0      0.0     0.0   598.2 
 344   21:10    0.0    17   63.3     0      0.0     0.0   598.2 
 344   21:20    0.0    17   64.7     0      0.0     0.0   598.0 
 344   21:30    0.0    16   64.2     0      0.0     0.0   597.9 

Return to White Mountain graphs page.


Western Regional Climate Center,wrcc@dri.edu